Hourly Data Report for September 10, 2017

All times are specified in Local Standard Time (LST). Add 1 hour to adjust for Daylight Saving Time where and when it is observed.

WINNIPEG A CS
MANITOBA

49°55'00.000" N
97°14'58.000" W
238.70 m
502S001
71849
XWG

Download Data

Hourly Data (September 2017)
Hourly Data Report for September 10, 2017
Temp Definition
°C
Dew Point Temp Definition
°C
Rel Hum Definition
%
Wind Dir Definition
10's deg

Wind Spd Definition
km/h
Visibility Definition
km
Stn Press Definition
kPa
Hmdx Definition


Wind Chill Definition


Weather Definition


TIME
00:00 20.0 14.2 69 18 31   98.78     LegendNANA
01:00 19.3 14.4 73 17 34   98.77     LegendNANA
02:00 18.5 14.3 77 17 29   98.77     LegendNANA
03:00 17.2 14.0 81 17 26   98.76     LegendNANA
04:00 16.9 14.1 84 17 24   98.78     LegendNANA
05:00 16.5 14.2 86 17 25   98.74     LegendNANA
06:00 16.2 14.2 88 16 24   98.73     LegendNANA
07:00 17.3 14.7 85 17 24   98.69     LegendNANA
08:00 19.0 15.0 77 17 31   98.65     LegendNANA
09:00 21.2 14.8 67 18 31   98.62 25   LegendNANA
10:00 23.5 14.9 58 18 35   98.59 27   LegendNANA
11:00 25.5 14.6 51 17 30   98.49 29   LegendNANA
12:00 26.9 14.3 46 18 36   98.39 30   LegendNANA
13:00 28.2 13.7 41 17 41   98.28 31   LegendNANA
14:00 28.5 13.7 40 19 37   98.26 32   LegendNANA
15:00 28.3 13.5 40 18 36   98.21 31   LegendNANA
16:00 28.4 13.8 41 19 32   98.17 32   LegendNANA
17:00 28.1 14.0 42 19 32   98.14 31   LegendNANA
18:00 26.9 14.8 47 19 20   98.15 31   LegendNANA
19:00 26.3 14.7 49 18 23   98.15 30   LegendNANA
20:00 25.6 14.8 51 19 24   98.17 29   LegendNANA
21:00 24.6 15.0 55 23 17   98.25 29   LegendNANA
22:00 23.0 13.4 55 26 19   98.33 26   LegendNANA
23:00 21.8 9.4 45 29 21   98.42     LegendNANA

Notes on Data Quality.

Legend

  • E = Estimated
  • M = Missing
  • NA = Not Available
  • ‡ = Partner data that is not subject to review by the National Climate Archives
Date modified: